Showing default

NPSAT1, 44340

Orbit data source: Space-Track

NPSAT1, 44340 is a payload satellite owned by USN PGS (US) in LEO that was launched on Tue, 25 Jun 2019 UTC via an FALCON HEAVY launch vehicle from the Air Force Eastern Test Range (AFETR). Payload-class satellites include a variety of spacecraft equipped with specific instruments for various scientific and technological missions. These include communications satellites like Starlink; space stations such as the ISS; scientific satellites like the Hubble; Earth observation satellites from companies like Planet Labs, Umbra, and HawkEye 360; GPS; miniature CubeSats for education and research; and military/defense satellites.

Not visible in the next 10 days
Identifier
44340, 2019-036B
Orbit
LEO
Country
Flag of USUS
Related business
Manufacturer
USN PGS
Mission
Operational Defense Tech/Sci
Bus & Motor
NPSAT, Unknown motor
Mass
83 kg wet, 83 kg dry
Launch date (UTC)
2019-06-25 (6 years ago)
Launch vehicle
FALCON HEAVY
Launch site
Air Force Eastern Test Range (AFETR)
Object type
Payload
Rocket body
Debris
Shape & HBR
Cyl + 2 Ant, 0.4 m
Radar Cross Section
0.314 m², Medium (>0.1 m² and < 1m²)

Expand to show TLE details & history
Last TLE update: 16 hours ago

TLE from 16 hours ago
0 NPSAT1
1 44340U 19036B   25260.20932058  .00005597  00000-0  86415-3 0  9991
2 44340  23.9982 190.7033 0008220  14.2223 345.8503 14.70511385332202
Epoch: 2025-09-17T05:01Z
TLE epoch observation values (Epoch: 2025-09-17T05:01:25.298Z)
Latitude
0.00002°
Longitude
118.95937°
Altitude
651.743 km
Speed
7.537 km/s
True Right ascension
12h 42m 48s
True Declination
0° 00' 00"
Sunlit
Object was in daylight at epoch
Visualization orbit readout
Latitude
Unknown
Longitude
Unknown
Altitude
Unknown
Speed
Unknown
Apparent Right ascension
Unknown
Apparent Declination
Unknown
Sunlit
N/A
Visualization observer readout
Local Sidereal Time
14:11:32
Azimuth
Unknown
Elevation
Unknown
Doppler factor
Unknown
Orbital elements
Apogee altitude
669.937 km
Perigee altitude
658.359 km
Semi-major axis
7,042.285 km
Eccentricity
0.00082
Inclination
23.9982°
RAAN
190.7033°
Arg. of periapsis
14.2223°
True anomaly
345.82725°
Mean anomaly
345.8503°
Eccentric anomaly
345.83878°
Mean motion
3.67259 °/min
Orbital period
98.02 mins
BSTAR
0.00086415
Loading maneuver chart data...
Computing Atmospheric mass density...
Loading historical data...
Loading historical data...
Loading historical data...
Loading historical data...
Loading historical data...
Loading historical data...
Loading historical data...

Documentation

Showing up to 5 results
|